Starlink 2731

operational
NORAD ID: 48651 Int'l Des: 2021-044 Owner: SPXS Country: US Constellation: starlink
LEOCIRCULAR

About Starlink 2731

Description loading...

Live Position

Loading 3D Globe...

Upcoming Passes

Altitude History

Altitude vs Time

uPlot chart will show altitude changes over time

Two-Line Element Set

1 48651U 21044P 26067.13007509 .00004951 00000-0 17914-3 0 9995
2 48651 53.1602 121.1292 0002203 77.5930 282.5318 15.30207926263587
Epoch: Mar 8, 2026 • Age: 17 hours

Current Status

Altitude 477.6 km
Velocity 7.63 km/s
Sub-Earth Point -8.66°S, 47.73°E
Launch Date May 26, 2021
Age 4.7 years
Type internet

Technical Details

Classification Payload
Mass 260.00 kg
Dry Mass 248.00 kg
Total Mass 260.00 kg
Length 0.20 m
Diameter 2.80 m
Span 9.00 m
Shape Box + pan
Manufacturer SPXS
Bus Type Starlink
Phase Status In Orbit
Owner/State SPXS/US

Large Constellations

Loading constellations...